Weather History for KBTV - May, 2013

Change the Weather History Date:

Monday, May 6, 2013

  Actual Average Record
Temperature  
Mean Temperature 66 °F 53 °F  
Max Temperature 80 °F 64 °F 87 °F (1944)
Min Temperature 51 °F 42 °F 25 °F (1961)
Degree Days  
Heating Degree Days 0 12  
Month to date heating degree days 8 78  
Since 1 July heating degree days 6475 7152  
Cooling Degree Days 1 0  
Month to date cooling degree days 4 0  
Year to date cooling degree days 4 2  
Growing Degree Days 16 (Base 50)    
Moisture  
Dew Point 30 °F    
Average Humidity 31    
Maximum Humidity 51    
Minimum Humidity 11    
Precipitation  
Precipitation 0.00 in 0.11 in 0.85 in (1894)
Month to date precipitation 0.00 0.61  
Year to date precipitation 6.53 9.47  
Snow  
Snow 0.00 in 0.00 in 0.40 in (1970)
Month to date snowfall 0.0 0.2  
Since 1 July snowfall 82.9 81.4  
Snow Depth 0.00 in    
Sea Level Pressure  
Sea Level Pressure 30.12 in    
Wind  
Wind Speed 9 mph (South)    
Max Wind Speed 16 mph    
Max Gust Speed 21 mph    
Visibility 10 miles    
Events      
T = Trace of Precipitation, MM = Missing Value Source: NWS Daily Summary

Daily Weather History Graph

Daily Weather History Graph

Search for Another Location

Airport or City:

Trip Planner

Search our weather history database for the weather conditions in past years. The results will help you decide how hot, cold, wet, or windy it might be!

Date:

Astronomy

May. 06, 2013 Rise Set
Actual Time 5:35 AM EDT 8:03 PM EDT
Civil Twilight 5:03 AM EDT 8:36 PM EDT
Nautical Twilight 4:22 AM EDT 9:16 PM EDT
Astronomical Twilight 3:36 AM EDT 10:03 PM EDT
Moon 3:44 AM EDT (5/6) 4:54 PM EDT (5/6)
Length of Visible Light 15h 32m
Length of Day
14h 27m
Waning Crescent, 11% of the Moon is Illuminated
May 6
Waning Crescent
May 9
New
May 18
First Quarter
May 25
Full
May 31
Last Quarter

Hourly Weather History & Observations

Time (EDT) Temp. Dew Point Humidity Pressure Visibility Wind Dir Wind Speed Gust Speed Precip Events Conditions
12:54 AM 63.0 °F 28.9 °F 28% 30.15 in 10.0 mi South 12.7 mph - N/A   Clear
1:54 AM 63.0 °F 28.9 °F 28% 30.15 in 10.0 mi South 11.5 mph - N/A   Clear
2:54 AM 62.1 °F 28.9 °F 29% 30.15 in 10.0 mi South 10.4 mph - N/A   Clear
3:54 AM 60.1 °F 30.0 °F 32% 30.15 in 10.0 mi South 9.2 mph - N/A   Clear
4:54 AM 57.9 °F 32.0 °F 37% 30.16 in 10.0 mi South 4.6 mph - N/A   Clear
5:54 AM 53.1 °F 34.0 °F 48% 30.18 in 10.0 mi Calm Calm - N/A   Clear
6:54 AM 55.0 °F 37.0 °F 51% 30.19 in 10.0 mi SSW 4.6 mph - N/A   Clear
7:54 AM 57.9 °F 39.0 °F 49% 30.20 in 10.0 mi South 11.5 mph - N/A   Clear
8:54 AM 61.0 °F 39.9 °F 46% 30.21 in 10.0 mi SSW 10.4 mph - N/A   Clear
9:54 AM 64.9 °F 39.0 °F 39% 30.20 in 10.0 mi South 13.8 mph 18.4 mph N/A   Clear
10:54 AM 68.0 °F 39.9 °F 36% 30.18 in 10.0 mi SSW 10.4 mph - N/A   Clear
11:54 AM 72.0 °F 41.0 °F 33% 30.17 in 10.0 mi SSW 6.9 mph - N/A   Clear
12:54 PM 75.0 °F 39.9 °F 28% 30.14 in 10.0 mi SW 9.2 mph - N/A   Clear
1:54 PM 77.0 °F 36.0 °F 23% 30.12 in 10.0 mi Variable 6.9 mph - N/A   Clear
2:54 PM 78.1 °F 33.1 °F 19% 30.10 in 10.0 mi South 9.2 mph 17.3 mph N/A   Clear
3:54 PM 78.1 °F 32.0 °F 19% 30.07 in 10.0 mi South 9.2 mph - N/A   Clear
4:54 PM 79.0 °F 30.9 °F 17% 30.05 in 10.0 mi South 8.1 mph - N/A   Clear
5:54 PM 78.1 °F 25.0 °F 14% 30.04 in 10.0 mi South 10.4 mph - N/A   Clear
6:54 PM 75.9 °F 18.0 °F 11% 30.03 in 10.0 mi South 10.4 mph - N/A   Clear
7:54 PM 72.0 °F 19.0 °F 13% 30.04 in 10.0 mi South 8.1 mph - N/A   Clear
8:54 PM 66.2 °F 19.4 °F 17% 30.05 in 10.0 mi South 6.9 mph - N/A   Clear
9:54 PM 66.9 °F 15.1 °F 14% 30.06 in 10.0 mi SSE 4.6 mph - N/A   Clear
10:54 PM 64.9 °F 18.0 °F 16% 30.07 in 10.0 mi South 8.1 mph - N/A   Clear
11:54 PM 64.9 °F 25.0 °F 22% 30.07 in 10.0 mi South 12.7 mph - N/A   Clear